{"data":{"norad_id":59806,"epoch":"2026-09-22T23:15:36.484992Z","epoch_age_seconds":59400,"freshness":"FRESH","line1":"1 59806U 24094B   26265.96917228  .00003756  00000+0  19314-3 0  9993","line2":"2 59806  97.3812 334.4743 0006187 112.2859 247.9031 15.17034397129983","mean_motion":15.17034397,"eccentricity":0.0006187,"inclination_deg":97.3812,"raan_deg":334.4743,"arg_perigee_deg":112.2859,"mean_anomaly_deg":247.9031,"bstar":0.00019314,"rev_number":12998,"period_min":94.922040188915,"perigee_km":510.54454217003,"apogee_km":519.07387380779,"semimajor_km":6892.9462079889,"source":"CELESTRAK","updated_at":"2026-09-23T09:00:19.589090Z"}}